Flag Weather past 2 weeks in Perth, Western Australia, Australia

Now
70 °F

Partly sunny.


Feels Like: 70 °F
Forecast: 53 / 81 °F
Wind: 18 mph from Southwest

Location: Belmont Perth Airport

Current Time: Nov 23, 2014 at 12:01:45 PM

Latest Report: Nov 23, 2014 at 11:00 AM


Visibility: N/A

Pressure: 30.04 "Hg

Humidity: 46%

Dew point: 48 °F

Location of PerthLocation

Historic Weather in Perth — Graph

°F

Perth temperature yesterday

Maximum temperature yesterday: 72 °F (at 11:00 AM)
Minimum temperature yesterday: 57 °F (at 6:00 AM)
Average temperature yesterday: 65 °F

Past Weeks' High & Low Weather Summary

 TemperatureHumidityPressure
High99 °F (Nov 9, 2:30 PM)94% (Nov 11, 3:00 AM)30.36 "Hg (Nov 11, 3:00 AM)
Low48 °F (Nov 14, 2:30 AM)11% (Nov 9, 4:00 PM)29.77 "Hg (Nov 9, 4:30 PM)
Average66 °F57%29.99 "Hg
* Reported Nov 8 10:00 AM — Nov 23 10:30 AM, Perth, Weather by CustomWeather, © 2014

Note: Actual official high and low records may vary slightly from our data, if they occured in-between our weather recording intervals... More about our weather records

Advertising

Perth weather history for previous 24 hours

 ConditionsComfort  
Time TempWeatherWind HumidityBarometerVisibility
10:30 AM
Nov 23
70 °FBroken clouds.15 mph46%30.04 "HgN/A
10:00 AM70 °FScattered clouds.18 mph46%30.04 "HgN/A
9:30 AM68 °FScattered clouds.14 mph53%30.04 "HgN/A
9:00 AM66 °FPartly sunny.18 mph60%30.04 "HgN/A
8:30 AM68 °FScattered clouds.10 mph53%30.04 "HgN/A
8:00 AM64 °FScattered clouds.15 mph64%30.04 "HgN/A
7:30 AM64 °FScattered clouds.20 mph64%30.04 "HgN/A
7:00 AM64 °FScattered clouds.15 mph56%30.01 "HgN/A
6:30 AM63 °FScattered clouds.7 mph59%30.01 "HgN/A
6:00 AM57 °FScattered clouds.6 mph72%29.98 "HgN/A
5:30 AM59 °FPassing clouds.6 mph68%29.98 "HgN/A
5:00 AM59 °FPassing clouds.6 mph68%29.98 "HgN/A
4:30 AM61 °FPassing clouds.7 mph55%29.98 "HgN/A
4:00 AM63 °FPassing clouds.10 mph52%29.95 "HgN/A
3:30 AM63 °FPassing clouds.10 mph59%29.95 "HgN/A
3:00 AM63 °FPassing clouds.14 mph59%29.95 "HgN/A
2:30 AM63 °FPassing clouds.9 mph52%29.95 "HgN/A
2:00 AM63 °FPassing clouds.10 mph59%29.95 "HgN/A
1:30 AM64 °FPassing clouds.16 mph56%29.95 "HgN/A
1:00 AM64 °FPassing clouds.13 mph60%29.95 "HgN/A
12:30 AM64 °FPassing clouds.12 mph60%29.95 "HgN/A
12:00 AM63 °FPassing clouds.8 mph68%29.98 "HgN/A
11:30 PM
Nov 22
64 °FPassing clouds.10 mph64%29.98 "HgN/A
11:00 PM61 °FPassing clouds.7 mph83%29.98 "HgN/A
10:30 PM63 °FPassing clouds.6 mph77%29.98 "HgN/A
10:00 PM63 °FPassing clouds.6 mph77%29.98 "HgN/A
9:30 PM61 °FPassing clouds.7 mph83%29.98 "HgN/A
9:00 PM63 °FPassing clouds.8 mph77%29.98 "HgN/A
8:30 PM63 °FPassing clouds.13 mph73%29.98 "HgN/A
8:00 PM63 °FPassing clouds.10 mph73%29.98 "HgN/A
7:30 PM64 °FPassing clouds.16 mph68%29.98 "HgN/A
7:00 PM64 °FPassing clouds.15 mph68%29.98 "HgN/A
6:30 PM66 °FPassing clouds.16 mph60%29.95 "HgN/A
6:00 PM68 °FPassing clouds.14 mph56%29.95 "HgN/A
5:30 PM68 °FScattered clouds.14 mph56%29.95 "HgN/A
5:00 PM68 °FPassing clouds.15 mph49%29.95 "HgN/A
4:30 PM70 °FPassing clouds.17 mph43%29.95 "HgN/A
4:00 PM70 °FPassing clouds.16 mph43%29.95 "HgN/A
3:30 PM70 °FPassing clouds.15 mph46%29.95 "HgN/A
3:00 PM70 °FPassing clouds.17 mph46%29.92 "HgN/A
2:30 PM72 °FPassing clouds.16 mph44%29.92 "HgN/A
2:00 PM72 °FPassing clouds.15 mph44%29.95 "HgN/A
1:30 PM72 °FPassing clouds.13 mph44%29.92 "HgN/A
1:00 PM72 °FPassing clouds.14 mph44%29.95 "HgN/A
12:30 PM72 °FScattered clouds.13 mph44%29.95 "HgN/A
12:00 PM72 °FScattered clouds.15 mph47%29.95 "HgN/A
Weather by CustomWeather, © 2014

See weather overviewHow to use our weather pages